STARLINK-31515, 59476

Orbit data source: Space-Track

STARLINK-31515, 59476 is a payload satellite owned by SpaceX/Seattle (US) in LEO that was launched on Wed, 10 Apr 2024 UTC via an FALCON 9 launch vehicle from the Air Force Eastern Test Range (AFETR). Payload-class satellites include a variety of spacecraft equipped with specific instruments for various scientific and technological missions. These include communications satellites like Starlink; space stations such as the ISS; scientific satellites like the Hubble; Earth observation satellites from companies like Planet Labs, Umbra, and HawkEye 360; GPS; miniature CubeSats for education and research; and military/defense satellites.

Loading next visibility...
Identifier
59476, 2024-068X
Orbit
LEO
Country
Flag of USUS
Related business
Manufacturer
SpaceX/Seattle
Mission
Operational Commercial Communications
Bus & Motor
STARLINK V2M, Unknown motor
Mass
730 kg wet, ~700 kg dry
Launch date (UTC)
2024-04-10 (2 years ago)
Launch vehicle
FALCON 9
Launch site
Air Force Eastern Test Range (AFETR)
Object type
Payload
Rocket body
Debris
Shape & HBR
Box + 2 Pan, 17.7 m
Radar Cross Section
33.884 m², Large (>1 m²)

Expand to show TLE details & history
Last TLE update: 2 days ago

TLE from 2 days ago
0 STARLINK-31515
1 59476U 24068X   26171.02357833 -.00001910  00000-0 -59921-4 0  9992
2 59476  42.9988 176.5578 0000857 243.5308 116.5456 15.27577393124179
Epoch: 2026-06-20T00:33Z
TLE epoch observation values (Epoch: 2026-06-20T00:33:57.167Z)
Latitude
-0.00001°
Longitude
-100.17456°
Altitude
483.095 km
Speed
7.626 km/s
True Right ascension
11h 46m 13s
True Declination
0° 00' 00"
Sunlit
Object was in daylight at epoch
Visualization orbit readout
Latitude
Unknown
Longitude
Unknown
Altitude
Unknown
Speed
Unknown
Apparent Right ascension
Unknown
Apparent Declination
Unknown
Sunlit
N/A
Visualization observer readout
Local Sidereal Time
21:29:14
Azimuth
Unknown
Elevation
Unknown
Doppler factor
Unknown
Orbital elements
Apogee altitude
485.59 km
Perigee altitude
484.414 km
Semi-major axis
6,863.139 km
Eccentricity
0.00009
Inclination
42.9988°
RAAN
176.5578°
Arg. of periapsis
243.5308°
True anomaly
116.55438°
Mean anomaly
116.5456°
Eccentric anomaly
116.54999°
Mean motion
3.81732 °/min
Orbital period
94.31 mins
BSTAR
-0.000059921
Loading maneuver chart data...
Computing Atmospheric mass density...
Loading historical data...
Loading historical data...
Loading historical data...
Loading historical data...
Loading historical data...
Loading historical data...
Loading historical data...

Documentation

Showing up to 5 results
|